GW3710 Weather Reports


time (UTC)temp
C
wind
direction
speed
KPH
gust
KPH
rain 1hr
cm
rain 24hr
cm
rain mn
cm
humidity
%
barometer
mb
20260503071828 10 221 4.8 6.4 0.00 0.00 0.00 50 1008.8
20260503071326 10 194 0.0 9.7 0.00 0.00 0.00 50 1008.7
20260503070821 10 227 3.2 6.4 0.00 0.00 0.00 50 1008.7
20260503070320 10 229 6.4 9.7 0.00 0.00 0.00 49 1009.0
20260503060238 10 184 1.6 3.2 0.00 0.00 0.00 50 1009.6
20260503054726 10 199 0.0 1.6 0.00 0.00 0.00 51 1009.9
20260503054223 10 219 3.2 4.8 0.00 0.00 0.00 51 1009.7
20260503053721 10 210 3.2 4.8 0.00 0.00 0.00 51 1009.7
20260503053219 10 199 3.2 4.8 0.00 0.00 0.00 51 1009.7
20260503052715 10 176 4.8 6.4 0.00 0.00 0.00 52 1009.9
20260503052212 10 202 3.2 4.8 0.00 0.00 0.00 51 1010.0
20260503051707 10 185 8.0 11.3 0.00 0.00 0.00 51 1009.8
20260503051205 10 209 1.6 6.4 0.00 0.00 0.00 52 1010.2
20260503050701 10 206 3.2 4.8 0.00 0.00 0.00 53 1010.2
20260503050158 10 212 1.6 3.2 0.00 0.00 0.00 54 1010.4
20260503045655 9 181 0.0 3.2 0.00 0.00 0.00 54 1010.3
20260503045152 10 184 1.6 3.2 0.00 0.00 0.00 53 1010.3
20260503044648 9 171 0.0 3.2 0.00 0.00 0.00 54 1010.4
20260503044141 10 183 1.6 3.2 0.00 0.00 0.00 54 1010.4
20260503043637 10 205 3.2 4.8 0.00 0.00 0.00 53 1010.3
20260503043134 10 170 0.0 1.6 0.00 0.00 0.00 54 1010.4
20260503042631 10 194 1.6 6.4 0.00 0.00 0.00 54 1010.5
20260503042127 10 184 1.6 4.8 0.00 0.00 0.00 54 1010.3
20260503041623 10 198 1.6 3.2 0.00 0.00 0.00 53 1010.5
20260503041120 10 189 1.6 9.7 0.00 0.00 0.00 52 1010.5
20260503040613 10 197 0.0 1.6 0.00 0.00 0.00 53 1010.3
20260503040110 10 168 3.2 3.2 0.00 0.00 0.00 53 1010.5
20260503035606 9 214 4.8 4.8 0.00 0.00 0.00 52 1010.3
20260503035104 9 178 1.6 4.8 0.00 0.00 0.00 53 1010.4
20260503034601 8 162 3.2 4.8 0.00 0.00 0.00 54 1010.6
20260503034058 7 152 0.0 1.6 0.00 0.00 0.00 58 1010.5
20260503033555 7 166 0.0 0.0 0.00 0.00 0.00 61 1010.7
20260503033053 7 166 0.0 0.0 0.00 0.00 0.00 61 1010.8
20260503032551 8 166 0.0 3.2 0.00 0.00 0.00 59 1010.9
20260503032049 8 162 1.6 1.6 0.00 0.00 0.00 58 1010.7
20260503031546 8 165 1.6 1.6 0.00 0.00 0.00 56 1010.9
20260503031044 6 183 1.6 3.2 0.00 0.00 0.00 59 1011.1
20260503030539 5 170 0.0 1.6 0.00 0.00 0.00 65 1011.0
20260503030037 6 170 0.0 0.0 0.00 0.00 0.00 66 1011.3
20260503025533 6 170 0.0 0.0 0.00 0.00 0.00 62 1011.2
20260503025032 6 170 0.0 0.0 0.00 0.00 0.00 63 1011.2
20260503024527 6 170 0.0 0.0 0.00 0.00 0.00 63 1011.4
20260503024024 6 170 0.0 0.0 0.00 0.00 0.00 60 1011.3
20260503023520 6 170 0.0 0.0 0.00 0.00 0.00 59 1011.3
20260503023018 7 170 0.0 1.6 0.00 0.00 0.00 57 1011.3
20260503022514 7 170 1.6 1.6 0.00 0.00 0.00 56 1011.3
20260503022009 7 170 0.0 1.6 0.00 0.00 0.00 59 1011.6
20260503021506 7 170 1.6 1.6 0.00 0.00 0.00 53 1011.4
20260503021003 7 169 0.0 0.0 0.00 0.00 0.00 54 1011.6
20260503020500 8 169 0.0 0.0 0.00 0.00 0.00 54 1011.5
20260503015956 8 169 1.6 3.2 0.00 0.00 0.00 51 1011.6
20260503015453 7 170 1.6 1.6 0.00 0.00 0.00 54 1011.5
20260503014950 7 170 0.0 0.0 0.00 0.00 0.00 54 1011.4
20260503014446 8 170 0.0 1.6 0.00 0.00 0.00 52 1011.4
20260503013945 8 170 0.0 1.6 0.00 0.00 0.00 51 1011.4
20260503013441 8 169 0.0 1.6 0.00 0.00 0.00 49 1011.4
20260503012938 9 171 1.6 3.2 0.00 0.00 0.00 48 1011.5
20260503012432 10 171 1.6 3.2 0.00 0.00 0.00 46 1011.5
20260503011927 10 183 1.6 1.6 0.00 0.00 0.00 45 1011.4
20260503011424 10 184 0.0 1.6 0.00 0.00 0.00 45 1011.5
20260503010921 11 184 0.0 1.6 0.00 0.00 0.00 44 1011.5
20260503010418 11 193 0.0 1.6 0.00 0.00 0.00 43 1011.6
20260503005915 11 181 0.0 3.2 0.00 0.00 0.00 41 1011.7
20260503005412 12 207 3.2 3.2 0.00 0.00 0.00 40 1011.7
20260503004908 12 204 1.6 3.2 0.00 0.00 0.00 38 1011.6
20260503004405 12 206 1.6 4.8 0.00 0.00 0.00 38 1011.5
20260503003903 12 213 3.2 3.2 0.00 0.00 0.00 37 1011.6
20260503003359 12 208 1.6 3.2 0.00 0.00 0.00 38 1011.5
20260503002856 13 213 1.6 6.4 0.00 0.00 0.00 36 1011.7
20260503002354 13 220 4.8 4.8 0.00 0.00 0.00 35 1011.6
20260503001850 13 202 1.6 4.8 0.00 0.00 0.00 36 1011.6
20260503001346 13 249 3.2 6.4 0.00 0.00 0.00 36 1011.6
20260503000844 13 216 3.2 6.4 0.00 0.00 0.00 35 1011.6
20260503000336 14 213 3.2 6.4 0.00 0.00 0.00 33 1011.8
20260502235832 14 191 3.2 6.4 0.00 0.00 0.00 34 1011.6
20260502235324 14 213 1.6 6.4 0.00 0.00 0.00 33 1011.5
20260502234820 14 166 3.2 9.7 0.00 0.00 0.00 32 1011.5
20260502234317 15 187 3.2 3.2 0.00 0.00 0.00 31 1011.8
20260502233814 15 207 3.2 16.1 0.00 0.00 0.00 32 1011.7
20260502233305 14 231 4.8 4.8 0.00 0.00 0.00 31 1011.6
20260502232802 14 295 3.2 9.7 0.00 0.00 0.00 31 1011.8
20260502232258 15 195 3.2 9.7 0.00 0.00 0.00 30 1011.7
20260502231754 15 321 6.4 9.7 0.00 0.00 0.00 30 1011.8
20260502231252 15 253 14.5 16.1 0.00 0.00 0.00 30 1011.7
20260502230751 15 230 3.2 9.7 0.00 0.00 0.00 32 1011.9
20260502230249 15 264 4.8 9.7 0.00 0.00 0.00 31 1011.9
20260502225745 14 211 3.2 11.3 0.00 0.00 0.00 32 1011.7
20260502225242 15 230 4.8 4.8 0.00 0.00 0.00 31 1012.1
20260502224738 14 199 3.2 6.4 0.00 0.00 0.00 33 1012.1
20260502224235 14 266 3.2 6.4 0.00 0.00 0.00 32 1012.1
20260502223732 14 222 6.4 11.3 0.00 0.00 0.00 31 1012.2
20260502223230 14 230 4.8 11.3 0.00 0.00 0.00 31 1012.2
20260502222727 15 248 8.0 11.3 0.00 0.00 0.00 30 1011.9
20260502222223 14 266 6.4 9.7 0.00 0.00 0.00 31 1012.2
20260502221719 15 316 9.7 22.5 0.00 0.00 0.00 30 1012.1
20260502221216 15 229 6.4 9.7 0.00 0.00 0.00 30 1012.3
20260502220712 15 291 9.7 24.1 0.00 0.00 0.00 29 1012.2
20260502220204 15 258 3.2 6.4 0.00 0.00 0.00 32 1012.2
20260502215701 15 278 9.7 14.5 0.00 0.00 0.00 30 1012.4
20260502215157 15 298 11.3 14.5 0.00 0.00 0.00 30 1012.3
20260502214655 13 265 6.4 12.9 0.00 0.00 0.00 32 1012.5
20260502214152 14 277 4.8 6.4 0.00 0.00 0.00 30 1012.4
20260502213649 15 278 8.0 12.9 0.00 0.00 0.00 29 1012.5
20260502213146 15 288 3.2 9.7 0.00 0.00 0.00 31 1012.5
20260502212645 15 233 6.4 11.3 0.00 0.00 0.00 30 1012.5
20260502212143 15 296 1.6 9.7 0.00 0.00 0.00 31 1012.6
20260502211638 15 232 4.8 9.7 0.00 0.00 0.00 32 1012.6
20260502211135 15 237 8.0 11.3 0.00 0.00 0.00 29 1012.7
20260502210633 15 310 12.9 17.7 0.00 0.00 0.00 29 1012.7
20260502210130 15 308 3.2 9.7 0.00 0.00 0.00 30 1012.9
20260502205626 15 351 6.4 12.9 0.00 0.00 0.00 30 1012.8
20260502205123 15 243 3.2 9.7 0.00 0.00 0.00 31 1013.2
20260502204620 15 202 1.6 9.7 0.00 0.00 0.00 34 1013.2
20260502204117 15 272 8.0 16.1 0.00 0.00 0.00 31 1013.2
20260502203614 15 326 8.0 17.7 0.00 0.00 0.00 29 1013.2
20260502203106 15 264 8.0 14.5 0.00 0.00 0.00 29 1013.3
20260502202601 15 116 1.6 4.8 0.00 0.00 0.00 28 1013.3
20260502202100 15 245 6.4 6.4 0.00 0.00 0.00 32 1013.5
20260502201555 14 188 9.7 12.9 0.00 0.00 0.00 30 1013.5
20260502201052 15 220 6.4 12.9 0.00 0.00 0.00 31 1013.4
20260502200547 14 4 8.0 17.7 0.00 0.00 0.00 32 1013.5
20260502200046 13 223 4.8 6.4 0.00 0.00 0.00 33 1013.5
20260502195543 13 241 4.8 9.7 0.00 0.00 0.00 33 1013.9
20260502195039 15 230 9.7 11.3 0.00 0.00 0.00 29 1013.8
20260502194536 15 226 3.2 6.4 0.00 0.00 0.00 31 1013.9
20260502194032 13 230 4.8 4.8 0.00 0.00 0.00 32 1014.1
20260502193530 13 193 3.2 12.9 0.00 0.00 0.00 33 1014.0
20260502193026 14 231 4.8 11.3 0.00 0.00 0.00 32 1014.3
20260502192522 14 218 6.4 14.5 0.00 0.00 0.00 32 1014.3
20260502192020 14 311 14.5 17.7 0.00 0.00 0.00 30 1014.3
20260502191516 14 301 6.4 17.7 0.00 0.00 0.00 33 1014.5
20260502191014 13 216 6.4 12.9 0.00 0.00 0.00 32 1014.3
20260502190511 14 224 3.2 12.9 0.00 0.00 0.00 29 1014.4
20260502190008 13 348 11.3 12.9 0.00 0.00 0.00 30 1014.4
20260502185503 14 278 9.7 14.5 0.00 0.00 0.00 29 1014.8
20260502185000 13 267 6.4 16.1 0.00 0.00 0.00 30 1014.6
20260502184455 13 289 4.8 16.1 0.00 0.00 0.00 33 1014.8
20260502183952 13 257 4.8 14.5 0.00 0.00 0.00 32 1014.9
20260502183448 12 239 6.4 14.5 0.00 0.00 0.00 33 1014.8
20260502182943 13 266 3.2 4.8 0.00 0.00 0.00 34 1014.9
20260502182439 12 231 3.2 4.8 0.00 0.00 0.00 35 1015.0
20260502181935 13 290 4.8 14.5 0.00 0.00 0.00 33 1015.2
20260502181434 13 321 9.7 17.7 0.00 0.00 0.00 33 1015.2
20260502180932 12 114 8.0 14.5 0.00 0.00 0.00 33 1015.4
20260502180429 13 227 8.0 16.1 0.00 0.00 0.00 31 1015.3
20260502170343 12 208 3.2 9.7 0.00 0.00 0.00 34 1015.8
20260502164329 12 223 6.4 11.3 0.00 0.00 0.00 36 1016.1
20260502163825 12 115 0.0 9.7 0.00 0.00 0.00 37 1016.4
20260502163322 11 218 6.4 12.9 0.00 0.00 0.00 36 1016.5
20260502162820 11 156 9.7 14.5 0.00 0.00 0.00 37 1016.4
20260502162316 11 177 6.4 9.7 0.00 0.00 0.00 37 1016.5
20260502161814 12 218 1.6 6.4 0.00 0.00 0.00 36 1016.5
20260502161309 11 106 0.0 3.2 0.00 0.00 0.00 38 1016.5
20260502160807 11 207 4.8 4.8 0.00 0.00 0.00 39 1016.6
20260502160301 12 231 3.2 6.4 0.00 0.00 0.00 37 1016.7
20260502152224 10 271 3.2 6.4 0.00 0.00 0.00 39 1017.2
20260502151721 10 168 1.6 6.4 0.00 0.00 0.00 42 1017.4
20260502151218 10 269 3.2 4.8 0.00 0.00 0.00 42 1017.3
20260502150716 9 195 8.0 12.9 0.00 0.00 0.00 40 1017.4
20260502150212 9 217 4.8 9.7 0.00 0.00 0.00 42 1017.3
20260502130555 5 185 1.6 1.6 0.00 0.00 0.00 69 1017.9
20260502123538 2 112 0.0 0.0 0.00 0.00 0.00 79 1017.9
20260502123034 2 112 0.0 0.0 0.00 0.00 0.00 78 1018.1
20260502122531 2 112 0.0 0.0 0.00 0.00 0.00 76 1018.0
20260502122029 2 112 0.0 0.0 0.00 0.00 0.00 76 1018.0
20260502121526 2 112 0.0 0.0 0.00 0.00 0.00 79 1017.9
20260502121023 1 112 0.0 0.0 0.00 0.00 0.00 81 1018.1
20260502120519 1 112 0.0 0.0 0.00 0.00 0.00 81 1018.3
20260502115514 0 112 0.0 0.0 0.00 0.00 0.00 81 1018.0
20260502115010 0 112 0.0 0.0 0.00 0.00 0.00 86 1018.0
20260502114507 -1 112 0.0 0.0 0.00 0.00 0.00 88 1018.1
20260502114004 -2 113 0.0 0.0 0.00 0.00 0.00 91 1017.9
20260502113501 -2 112 0.0 0.0 0.00 0.00 0.00 94 1018.0
20260502113000 -2 112 0.0 0.0 0.00 0.00 0.00 97 1017.9
20260502112457 -3 112 0.0 0.0 0.00 0.00 0.00 97 1017.8
20260502111954 -4 113 0.0 0.0 0.00 0.00 0.00 97 1017.7
20260502111451 -4 113 0.0 0.0 0.00 0.00 0.00 97 1017.7
20260502110949 -5 113 0.0 0.0 0.00 0.00 0.00 96 1017.9
20260502110446 -5 113 0.0 0.0 0.00 0.00 0.00 96 1017.7
20260502105943 -4 113 0.0 0.0 0.00 0.00 0.00 96 1017.8
20260502105441 -4 113 0.0 0.0 0.00 0.00 0.00 96 1017.7
20260502104939 -5 113 0.0 0.0 0.00 0.00 0.00 96 1017.8
20260502104435 -5 113 0.0 0.0 0.00 0.00 0.00 95 1017.7
20260502103933 -5 113 0.0 0.0 0.00 0.00 0.00 95 1017.8
20260502103430 -5 113 0.0 0.0 0.00 0.00 0.00 95 1017.7
20260502102927 -5 113 0.0 0.0 0.00 0.00 0.00 94 1017.8
20260502102424 -4 113 0.0 0.0 0.00 0.00 0.00 94 1017.8
20260502101921 -4 113 0.0 0.0 0.00 0.00 0.00 94 1017.9
20260502101419 -4 113 0.0 0.0 0.00 0.00 0.00 94 1017.9
20260502100917 -4 113 0.0 0.0 0.00 0.00 0.00 94 1018.0
20260502100416 -4 113 0.0 0.0 0.00 0.00 0.00 94 1017.8
20260502091350 -5 113 0.0 0.0 0.00 0.00 0.00 96 1017.9
20260502090848 -5 113 0.0 0.0 0.00 0.00 0.00 96 1018.1
20260502090344 -5 113 0.0 0.0 0.00 0.00 0.00 96 1018.1